EDW49Q LSZH-BKPR

Flight info

Callsign EDW49Q
Flight time 1h 39m
Altitude 37000
Route DEGES Z2 TUNUM Z204 GEDSO DCT VEKEN DCT DARZA DCT RASTU DCT BARIT DCT RETRA DCT RINAV DCT ARBER ARBER1A
Aircraft A320/M-SDE3FGHIRWY/LB1

Departure

Time 2026-05-04 11:25
Airport Zürich Airport (LSZH)

Arrival

Time 2026-05-04 13:05
Airport Priština Adem Jashari International Airport (BKPR)
Time Latitude Longitude Altitude Speed Heading
2026-05-04 10:44 47.44849 8.56147 1399 ft 0 kts 65°
2026-05-04 11:16 47.44787 8.56042 1409 ft 2 kts 341°
2026-05-04 11:16 47.44776 8.56048 1409 ft 2 kts 335°
2026-05-04 11:16 47.44766 8.56055 1405 ft 2 kts 334°
2026-05-04 11:17 47.44764 8.56056 1404 ft 0 kts 334°
2026-05-04 11:19 47.44949 8.55853 1403 ft 8 kts 277°
2026-05-04 11:19 47.44964 8.55775 1404 ft 9 kts 302°
2026-05-04 11:19 47.45016 8.55729 1407 ft 6 kts 336°
2026-05-04 11:19 47.45045 8.55709 1407 ft 3 kts 336°
2026-05-04 11:20 47.45077 8.55687 1405 ft 7 kts 335°
2026-05-04 11:20 47.45136 8.55647 1410 ft 13 kts 335°
2026-05-04 11:20 47.45238 8.55582 1413 ft 17 kts 345°
2026-05-04 11:20 47.45349 8.55527 1411 ft 18 kts 335°
2026-05-04 11:22 47.45634 8.55924 1410 ft 18 kts 96°
2026-05-04 11:22 47.45621 8.56116 1411 ft 19 kts 96°
2026-05-04 11:23 47.45606 8.56330 1413 ft 23 kts 96°
2026-05-04 11:23 47.45589 8.56558 1418 ft 22 kts 96°
2026-05-04 11:24 47.45749 8.55775 1412 ft 135 kts 275°
2026-05-04 11:25 47.45868 8.54103 1690 ft 177 kts 277°
2026-05-04 11:25 47.45997 8.52264 2647 ft 182 kts 276°
2026-05-04 11:25 47.46128 8.50371 3471 ft 194 kts 276°
2026-05-04 11:26 47.45635 8.46207 4328 ft 227 kts 236°
2026-05-04 11:27 47.38078 8.38869 10324 ft 249 kts 124°
2026-05-04 11:28 47.37566 8.41318 11069 ft 258 kts 91°
2026-05-04 11:28 47.38052 8.43869 11797 ft 265 kts 58°
2026-05-04 11:28 47.39127 8.46096 12537 ft 268 kts 54°
2026-05-04 11:28 47.40236 8.48340 13264 ft 272 kts 54°
2026-05-04 11:29 47.41158 8.50877 13606 ft 292 kts 77°
2026-05-04 11:29 47.41357 8.53941 13818 ft 311 kts 92°
2026-05-04 11:29 47.41358 8.57256 14009 ft 335 kts 92°
2026-05-04 11:29 47.41345 8.60806 14148 ft 358 kts 92°
2026-05-04 11:31 47.41331 8.87558 18477 ft 388 kts 93°
2026-05-04 11:33 47.41262 9.16215 22097 ft 410 kts 93°
2026-05-04 11:33 47.41376 9.20447 22578 ft 416 kts 85°
2026-05-04 11:33 47.41925 9.24667 23048 ft 421 kts 79°
2026-05-04 11:34 47.42581 9.28906 23518 ft 425 kts 79°
2026-05-04 11:34 47.43237 9.33180 23925 ft 428 kts 79°
2026-05-04 11:34 47.43892 9.37479 24327 ft 431 kts 79°
2026-05-04 11:34 47.44547 9.41809 24725 ft 433 kts 79°
2026-05-04 11:35 47.45200 9.46165 25107 ft 436 kts 79°
2026-05-04 11:35 47.45855 9.50557 25488 ft 438 kts 79°
2026-05-04 11:35 47.46501 9.54911 25852 ft 441 kts 79°
2026-05-04 11:35 47.47013 9.59376 26218 ft 442 kts 87°
2026-05-04 11:36 47.47069 9.63907 26585 ft 442 kts 96°
2026-05-04 11:36 47.46823 9.68452 26942 ft 444 kts 97°
2026-05-04 11:36 47.46570 9.73013 27296 ft 447 kts 97°
2026-05-04 11:36 47.46320 9.77603 27655 ft 449 kts 97°
2026-05-04 11:37 47.46069 9.82214 28018 ft 452 kts 97°
2026-05-04 11:37 47.45814 9.86858 28370 ft 454 kts 97°
2026-05-04 11:37 47.45552 9.91517 28732 ft 456 kts 97°
2026-05-04 11:37 47.45286 9.96203 29085 ft 459 kts 97°
2026-05-04 11:38 47.45014 10.00917 29423 ft 461 kts 97°
2026-05-04 11:38 47.44741 10.05633 29750 ft 463 kts 97°
2026-05-04 11:38 47.44462 10.10387 30036 ft 466 kts 97°
2026-05-04 11:38 47.44182 10.15176 30305 ft 468 kts 97°
2026-05-04 11:39 47.43856 10.19348 30536 ft 468 kts 102°
2026-05-04 11:39 47.43236 10.24069 30798 ft 469 kts 103°
2026-05-04 11:40 47.39371 10.52640 32290 ft 479 kts 103°
2026-05-04 11:41 47.38711 10.57460 32589 ft 478 kts 103°
2026-05-04 11:41 47.38048 10.62265 32920 ft 478 kts 103°
2026-05-04 11:41 47.37382 10.67060 33241 ft 477 kts 103°
2026-05-04 11:41 47.36712 10.71853 33556 ft 476 kts 103°
2026-05-04 11:42 47.36040 10.76626 33880 ft 475 kts 103°
2026-05-04 11:42 47.35369 10.81396 34177 ft 475 kts 103°
2026-05-04 11:42 47.34699 10.86171 34441 ft 474 kts 103°
2026-05-04 11:42 47.34039 10.90866 34691 ft 474 kts 103°
2026-05-04 11:43 47.33359 10.95679 34997 ft 473 kts 103°
2026-05-04 11:43 47.32684 11.00426 35268 ft 473 kts 103°
2026-05-04 11:43 47.32018 11.05094 35521 ft 472 kts 103°
2026-05-04 11:43 47.31342 11.09831 35787 ft 472 kts 103°
2026-05-04 11:44 47.30666 11.14563 36041 ft 472 kts 103°
2026-05-04 11:44 47.29987 11.19286 36293 ft 471 kts 103°
2026-05-04 11:44 47.29307 11.24000 36547 ft 470 kts 103°
2026-05-04 11:44 47.28626 11.28719 36785 ft 470 kts 103°
2026-05-04 11:45 47.27950 11.33417 37047 ft 469 kts 103°
2026-05-04 11:45 47.27269 11.38118 37285 ft 469 kts 103°
2026-05-04 11:45 47.26585 11.42796 37511 ft 468 kts 104°
2026-05-04 11:45 47.25812 11.47445 37740 ft 466 kts 110°
2026-05-04 11:46 47.24607 11.51852 37946 ft 463 kts 119°
2026-05-04 11:46 47.22970 11.55909 38168 ft 460 kts 127°
2026-05-04 11:46 47.21125 11.59758 38374 ft 460 kts 127°
2026-05-04 11:46 47.19285 11.63598 38630 ft 460 kts 127°
2026-05-04 11:47 47.17447 11.67441 38810 ft 459 kts 127°
2026-05-04 11:47 47.15615 11.71278 38955 ft 459 kts 127°
2026-05-04 11:47 47.13779 11.75120 39015 ft 460 kts 127°
2026-05-04 11:48 47.10092 11.82789 39028 ft 460 kts 127°
2026-05-04 11:48 47.06779 11.90835 39035 ft 463 kts 118°
2026-05-04 11:49 47.03973 11.99284 39043 ft 464 kts 118°
2026-05-04 11:49 47.01134 12.07751 39070 ft 463 kts 118°
2026-05-04 11:50 46.98279 12.16224 39099 ft 464 kts 118°
2026-05-04 11:50 46.95424 12.24703 39113 ft 464 kts 118°
2026-05-04 11:51 46.92571 12.33152 39123 ft 463 kts 118°
2026-05-04 11:51 46.89711 12.41585 39137 ft 462 kts 118°
2026-05-04 11:52 46.86849 12.49989 39125 ft 462 kts 118°
2026-05-04 11:52 46.83977 12.58394 39115 ft 462 kts 118°
2026-05-04 11:53 46.81102 12.66776 39101 ft 461 kts 118°
2026-05-04 11:53 46.78231 12.75141 39091 ft 461 kts 118°
2026-05-04 11:55 46.66677 13.08522 39094 ft 461 kts 118°
2026-05-04 11:56 46.63789 13.16783 39098 ft 461 kts 118°
2026-05-04 11:56 46.60882 13.25090 39093 ft 461 kts 118°
2026-05-04 11:57 46.57962 13.33399 39095 ft 462 kts 118°
2026-05-04 11:57 46.54380 13.41050 39095 ft 457 kts 135°
2026-05-04 11:58 46.50032 13.47802 39091 ft 458 kts 135°
2026-05-04 11:58 46.45702 13.54602 39085 ft 458 kts 135°
2026-05-04 11:59 46.41369 13.61391 39086 ft 459 kts 135°
2026-05-04 11:59 46.37011 13.68165 39084 ft 460 kts 135°
2026-05-04 12:00 46.32641 13.74929 39084 ft 461 kts 135°
2026-05-04 12:00 46.28260 13.81697 39092 ft 462 kts 135°
2026-05-04 12:01 46.23864 13.88481 39101 ft 462 kts 135°
2026-05-04 12:02 46.08477 14.12109 39098 ft 463 kts 135°
2026-05-04 12:03 46.04045 14.18863 39094 ft 463 kts 135°
2026-05-04 12:03 45.99609 14.25599 39096 ft 464 kts 135°
2026-05-04 12:04 45.95163 14.32344 39097 ft 464 kts 135°
2026-05-04 12:04 45.90720 14.39084 39100 ft 465 kts 135°
2026-05-04 12:05 45.86272 14.45808 39095 ft 465 kts 135°
2026-05-04 12:05 45.81811 14.52532 39100 ft 465 kts 135°
2026-05-04 12:06 45.77340 14.59249 39103 ft 466 kts 135°
2026-05-04 12:06 45.72872 14.65960 39106 ft 466 kts 135°
2026-05-04 12:07 45.68422 14.72617 39107 ft 466 kts 135°
2026-05-04 12:07 45.63931 14.79300 39101 ft 466 kts 135°
2026-05-04 12:08 45.59443 14.85972 39097 ft 466 kts 135°
2026-05-04 12:08 45.54949 14.92644 39096 ft 467 kts 135°
2026-05-04 12:09 45.50442 14.99320 39099 ft 467 kts 135°
2026-05-04 12:09 45.45859 15.05855 39096 ft 466 kts 137°
2026-05-04 12:10 45.41108 15.12163 39096 ft 467 kts 139°
2026-05-04 12:10 45.36334 15.18428 39098 ft 467 kts 138°
2026-05-04 12:11 45.31597 15.24749 39096 ft 467 kts 137°
2026-05-04 12:11 45.26872 15.31100 39092 ft 468 kts 137°
2026-05-04 12:12 45.22935 15.36366 39093 ft 468 kts 137°
2026-05-04 12:12 45.17409 15.43713 39089 ft 469 kts 137°
2026-05-04 12:14 44.99071 15.67975 39087 ft 471 kts 137°
2026-05-04 12:15 44.94298 15.74245 39087 ft 472 kts 137°
2026-05-04 12:15 44.89474 15.80545 39093 ft 473 kts 138°
2026-05-04 12:16 44.84640 15.86837 39092 ft 473 kts 138°
2026-05-04 12:16 44.79795 15.93126 39096 ft 474 kts 137°
2026-05-04 12:17 44.74948 15.99416 39099 ft 474 kts 137°
2026-05-04 12:17 44.70092 16.05707 39102 ft 475 kts 137°
2026-05-04 12:18 44.65234 16.11990 39105 ft 475 kts 137°
2026-05-04 12:18 44.60370 16.18258 39113 ft 475 kts 137°
2026-05-04 12:19 44.55501 16.24522 39111 ft 475 kts 137°
2026-05-04 12:19 44.50623 16.30763 39117 ft 475 kts 137°
2026-05-04 12:20 44.45740 16.37008 39121 ft 475 kts 137°
2026-05-04 12:20 44.40852 16.43248 39124 ft 476 kts 137°
2026-05-04 12:21 44.35951 16.49498 39130 ft 477 kts 137°
2026-05-04 12:21 44.31079 16.55695 39125 ft 477 kts 137°
2026-05-04 12:22 44.26166 16.61913 39125 ft 477 kts 138°
2026-05-04 12:22 44.21243 16.68126 39131 ft 477 kts 137°
2026-05-04 12:23 44.16324 16.74331 39125 ft 477 kts 137°
2026-05-04 12:23 44.11405 16.80524 39124 ft 477 kts 137°
2026-05-04 12:24 44.06475 16.86712 39118 ft 477 kts 137°
2026-05-04 12:24 44.01538 16.92892 39124 ft 478 kts 138°
2026-05-04 12:25 43.96594 16.99063 39123 ft 478 kts 137°
2026-05-04 12:25 43.91648 17.05230 39125 ft 478 kts 137°
2026-05-04 12:26 43.86699 17.11392 39128 ft 478 kts 138°
2026-05-04 12:26 43.81743 17.17533 39127 ft 478 kts 138°
2026-05-04 12:27 43.76783 17.23670 39129 ft 478 kts 138°
2026-05-04 12:27 43.71822 17.29794 39129 ft 478 kts 138°
2026-05-04 12:28 43.66851 17.35923 39132 ft 479 kts 138°
2026-05-04 12:28 43.61914 17.41997 39134 ft 479 kts 138°
2026-05-04 12:29 43.56937 17.48104 39133 ft 479 kts 138°
2026-05-04 12:29 43.54444 17.51159 38791 ft 480 kts 138°
2026-05-04 12:29 43.51949 17.54207 38330 ft 479 kts 138°
2026-05-04 12:30 43.49455 17.57250 37875 ft 479 kts 138°
2026-05-04 12:30 43.46951 17.60300 37439 ft 481 kts 138°
2026-05-04 12:30 43.44442 17.63354 37114 ft 482 kts 138°
2026-05-04 12:30 43.41933 17.66409 37117 ft 483 kts 138°
2026-05-04 12:31 43.36881 17.72546 37114 ft 485 kts 138°
2026-05-04 12:31 43.31821 17.78675 37112 ft 485 kts 138°
2026-05-04 12:32 43.24394 17.88089 37115 ft 485 kts 132°
2026-05-04 12:33 43.19797 17.94844 37115 ft 485 kts 132°
2026-05-04 12:33 43.15185 18.01607 37117 ft 485 kts 132°
2026-05-04 12:34 43.10570 18.08345 37124 ft 486 kts 132°
2026-05-04 12:34 43.05943 18.15076 37134 ft 486 kts 132°
2026-05-04 12:35 43.01336 18.21769 37143 ft 486 kts 132°
2026-05-04 12:35 42.96704 18.28487 37142 ft 486 kts 132°
2026-05-04 12:36 42.92060 18.35201 37142 ft 486 kts 132°
2026-05-04 12:36 42.87412 18.41911 37146 ft 486 kts 132°
2026-05-04 12:37 42.82761 18.48609 37145 ft 487 kts 132°
2026-05-04 12:37 42.78632 18.55815 37141 ft 481 kts 113°
2026-05-04 12:38 42.75872 18.64095 37133 ft 480 kts 111°
2026-05-04 12:38 42.73165 18.72409 37136 ft 481 kts 111°
2026-05-04 12:39 42.70452 18.80716 37145 ft 481 kts 111°
2026-05-04 12:39 42.67734 18.88966 37150 ft 481 kts 111°
2026-05-04 12:40 42.64970 18.97307 37150 ft 481 kts 111°
2026-05-04 12:40 42.62245 19.05522 37137 ft 480 kts 111°
2026-05-04 12:41 42.59496 19.13789 37140 ft 480 kts 111°
2026-05-04 12:41 42.56740 19.22037 37133 ft 480 kts 111°
2026-05-04 12:42 42.53978 19.30267 37130 ft 479 kts 111°
2026-05-04 12:42 42.51219 19.38495 37128 ft 479 kts 111°
2026-05-04 12:43 42.48450 19.46716 37130 ft 479 kts 111°
2026-05-04 12:43 42.45675 19.54920 37119 ft 478 kts 111°
2026-05-04 12:44 42.42897 19.63119 37131 ft 480 kts 111°
2026-05-04 12:44 42.40107 19.71324 37134 ft 479 kts 112°
2026-05-04 12:44 42.38710 19.75420 36940 ft 481 kts 111°
2026-05-04 12:45 42.37299 19.79564 35789 ft 491 kts 111°
2026-05-04 12:45 42.35865 19.83769 35039 ft 492 kts 111°
2026-05-04 12:45 42.34430 19.87967 34283 ft 493 kts 111°
2026-05-04 12:45 42.32987 19.92181 33469 ft 494 kts 111°
2026-05-04 12:46 42.31566 19.96318 32692 ft 491 kts 110°
2026-05-04 12:46 42.30128 20.00498 31962 ft 489 kts 111°
2026-05-04 12:46 42.28698 20.04644 31346 ft 485 kts 110°
2026-05-04 12:46 42.27283 20.08743 30757 ft 480 kts 110°
2026-05-04 12:47 42.25878 20.12808 30184 ft 475 kts 110°
2026-05-04 12:47 42.24486 20.16832 29545 ft 470 kts 110°
2026-05-04 12:47 42.23109 20.20805 28930 ft 465 kts 110°
2026-05-04 12:47 42.21747 20.24734 28321 ft 460 kts 110°
2026-05-04 12:48 42.20399 20.28618 27739 ft 455 kts 110°
2026-05-04 12:48 42.19062 20.32459 27192 ft 450 kts 110°
2026-05-04 12:48 42.17738 20.36256 26642 ft 445 kts 110°
2026-05-04 12:48 42.16424 20.40015 26088 ft 440 kts 110°
2026-05-04 12:49 42.15262 20.43779 25532 ft 430 kts 101°
2026-05-04 12:49 42.14762 20.47665 25019 ft 415 kts 87°
2026-05-04 12:49 42.14953 20.51478 24516 ft 402 kts 73°
2026-05-04 12:49 42.15756 20.55010 24015 ft 389 kts 61°
2026-05-04 12:50 42.17061 20.58144 23461 ft 380 kts 52°
2026-05-04 12:50 42.18494 20.61116 22855 ft 376 kts 52°
2026-05-04 12:50 42.19906 20.64061 22340 ft 371 kts 53°
2026-05-04 12:50 42.21300 20.66984 21749 ft 369 kts 53°
2026-05-04 12:51 42.22677 20.69880 21209 ft 365 kts 53°
2026-05-04 12:51 42.24022 20.72705 20738 ft 361 kts 53°
2026-05-04 12:51 42.25373 20.75539 20227 ft 357 kts 53°
2026-05-04 12:51 42.26717 20.78361 19701 ft 355 kts 53°
2026-05-04 12:52 42.28045 20.81159 19163 ft 354 kts 53°
2026-05-04 12:52 42.29380 20.83974 18709 ft 351 kts 53°
2026-05-04 12:52 42.30675 20.86700 18326 ft 346 kts 54°
2026-05-04 12:52 42.31969 20.89420 17785 ft 344 kts 54°
2026-05-04 12:53 42.33262 20.92141 17211 ft 344 kts 54°
2026-05-04 12:53 42.34539 20.94844 16713 ft 341 kts 54°
2026-05-04 12:53 42.35806 20.97530 16266 ft 336 kts 54°
2026-05-04 12:53 42.37064 21.00194 15801 ft 334 kts 54°
2026-05-04 12:54 42.38313 21.02837 15297 ft 334 kts 54°
2026-05-04 12:54 42.39553 21.05465 14857 ft 331 kts 55°
2026-05-04 12:54 42.40787 21.08082 14496 ft 327 kts 55°
2026-05-04 12:54 42.42004 21.10665 14141 ft 322 kts 55°
2026-05-04 12:55 42.43194 21.13189 13849 ft 315 kts 55°
2026-05-04 12:55 42.44365 21.15679 13410 ft 313 kts 55°
2026-05-04 12:55 42.45530 21.18160 12908 ft 312 kts 56°
2026-05-04 12:55 42.46665 21.20661 12417 ft 312 kts 61°
2026-05-04 12:56 42.47165 21.23507 12029 ft 316 kts 89°
2026-05-04 12:56 42.46605 21.26347 11876 ft 315 kts 116°
2026-05-04 12:56 42.45154 21.28541 11687 ft 314 kts 138°
2026-05-04 12:56 42.43434 21.30340 11357 ft 312 kts 140°
2026-05-04 12:57 42.41693 21.32083 11019 ft 310 kts 143°
2026-05-04 12:57 42.39743 21.33302 10618 ft 309 kts 165°
2026-05-04 12:57 42.37615 21.33488 10059 ft 307 kts 187°
2026-05-04 12:57 42.35613 21.32594 9452 ft 303 kts 210°
2026-05-04 12:58 42.34017 21.30802 8848 ft 296 kts 232°
2026-05-04 12:58 42.33014 21.28423 8261 ft 289 kts 253°
2026-05-04 12:58 42.32687 21.25831 7689 ft 281 kts 274°
2026-05-04 12:58 42.33017 21.23283 7143 ft 272 kts 294°
2026-05-04 12:59 42.33874 21.21059 6662 ft 262 kts 304°
2026-05-04 12:59 42.34825 21.18942 6205 ft 265 kts 303°
2026-05-04 12:59 42.35786 21.16790 5742 ft 269 kts 303°
2026-05-04 12:59 42.36755 21.14610 5289 ft 272 kts 303°
2026-05-04 13:00 42.37732 21.12405 4835 ft 272 kts 303°
2026-05-04 13:00 42.38687 21.10253 4386 ft 261 kts 302°
2026-05-04 13:00 42.39594 21.08212 4186 ft 244 kts 304°
2026-05-04 13:00 42.40612 21.06552 4167 ft 219 kts 323°
2026-05-04 13:01 42.41840 21.05510 4183 ft 201 kts 340°
2026-05-04 13:01 42.43137 21.05031 4196 ft 189 kts 354°
2026-05-04 13:01 42.44432 21.04892 4185 ft 184 kts 358°
2026-05-04 13:01 42.45656 21.04768 4071 ft 170 kts 357°
2026-05-04 13:02 42.46769 21.04654 3877 ft 151 kts 358°
2026-05-04 13:02 42.47782 21.04553 3670 ft 142 kts 358°
2026-05-04 13:02 42.48761 21.04453 3447 ft 141 kts 358°
2026-05-04 13:02 42.49727 21.04351 3224 ft 138 kts 358°
2026-05-04 13:03 42.50680 21.04258 3026 ft 136 kts 358°
2026-05-04 13:03 42.51630 21.04166 2746 ft 137 kts 357°
2026-05-04 13:03 42.52576 21.04068 2579 ft 136 kts 357°
2026-05-04 13:03 42.53522 21.03971 2340 ft 136 kts 356°
2026-05-04 13:04 42.54468 21.03875 2185 ft 136 kts 354°
2026-05-04 13:04 42.55401 21.03773 1980 ft 135 kts 355°
2026-05-04 13:04 42.56331 21.03682 1796 ft 127 kts 356°
2026-05-04 13:04 42.57074 21.03610 1793 ft 83 kts 355°
2026-05-04 13:05 42.57521 21.03565 1793 ft 41 kts 356°
2026-05-04 13:05 42.57779 21.03518 1790 ft 35 kts 340°
2026-05-04 13:05 42.57919 21.03413 1785 ft 13 kts 326°
2026-05-04 13:05 42.57991 21.03349 1789 ft 10 kts 327°
2026-05-04 13:06 42.57996 21.03278 1788 ft 10 kts 213°
2026-05-04 13:06 42.57905 21.03280 1787 ft 14 kts 175°
2026-05-04 13:06 42.57809 21.03291 1787 ft 13 kts 175°
2026-05-04 13:06 42.57717 21.03301 1787 ft 14 kts 175°
2026-05-04 13:07 42.57653 21.03306 1785 ft 13 kts 176°
2026-05-04 13:07 42.57594 21.03273 1786 ft 9 kts 246°
2026-05-04 13:07 42.57556 21.03220 1787 ft 8 kts 194°
2026-05-04 13:07 42.57502 21.03223 1787 ft 7 kts 175°
2026-05-04 13:08 42.57450 21.03228 1787 ft 7 kts 176°
2026-05-04 13:08 42.57405 21.03223 1787 ft 6 kts 215°
2026-05-04 13:08 42.57397 21.03178 1787 ft 4 kts 267°
2026-05-04 13:08 42.57395 21.03151 1787 ft 2 kts 266°
2026-05-04 13:09 42.57395 21.03149 1787 ft 0 kts 266°